FW6247 Weather Reports


Display with metric or nautical units.
time (UTC)temp
F
wind
direction
speed
MPH
gust
MPH
rain 1hr
in
rain 24hr
in
rain mn
in
humidity
%
barometer
mb
20260504044530 62 169 6.0 8.0 0.00 0.00 0.00 55 1011.5
20260504041606 61 176 3.0 7.0 0.00 0.00 0.00 59 1011.1
20260504040046 62 183 0.0 3.0 0.00 0.00 0.00 59 1011.0
20260504034527 63 141 0.0 0.0 0.00 0.00 0.00 61 1010.8
20260504033031 64 190 0.0 0.0 0.00 0.00 0.00 59 1010.7
20260504030030 70 67 0.0 1.0 0.00 0.00 0.00 52 1010.6
20260504024529 74 67 0.0 0.0 0.00 0.00 0.00 44 1010.6
20260504023106 76 67 0.0 0.0 0.00 0.00 0.00 39 1010.6
20260504021532 78 67 0.0 1.0 0.00 0.00 0.00 39 1010.8
20260504020030 80 67 0.0 0.0 0.00 0.00 0.00 37 1010.9
20260504014530 81 61 0.0 2.0 0.00 0.00 0.00 34 1011.0
20260504013027 83 46 0.0 2.0 0.00 0.00 0.00 32 1011.0
20260504011531 83 11 0.0 3.0 0.00 0.00 0.00 30 1011.2
20260504010028 83 33 0.0 3.0 0.00 0.00 0.00 29 1011.4
20260504004535 84 26 0.0 4.0 0.00 0.00 0.00 28 1011.5
20260504003028 84 357 0.0 4.0 0.00 0.00 0.00 28 1011.6
20260504001531 84 11 1.0 6.0 0.00 0.00 0.00 28 1011.7
20260504000031 84 24 1.0 8.0 0.00 0.00 0.00 28 1011.8
20260503234647 84 28 1.0 5.0 0.00 0.00 0.00 27 1012.0
20260503233106 84 36 1.0 7.0 0.00 0.00 0.00 28 1012.2
20260503230032 82 57 1.0 5.0 0.00 0.00 0.00 28 1012.6
20260503224531 82 74 1.0 10.0 0.00 0.00 0.00 28 1012.9
20260503223029 82 18 1.0 6.0 0.00 0.00 0.00 29 1013.2
20260503221532 81 49 1.0 6.0 0.00 0.00 0.00 30 1013.4
20260503220030 81 34 2.0 6.0 0.00 0.00 0.00 30 1013.6
20260503214526 80 68 2.0 8.0 0.00 0.00 0.00 31 1013.8
20260503213107 80 56 2.0 8.0 0.00 0.00 0.00 31 1014.0
20260503211606 80 39 2.0 7.0 0.00 0.00 0.00 33 1014.2
20260503210029 80 52 2.0 8.0 0.00 0.00 0.00 34 1014.4
20260503204532 81 40 2.0 9.0 0.00 0.00 0.00 34 1014.5
20260503203032 81 43 2.0 7.0 0.00 0.00 0.00 33 1014.6
20260503201530 82 36 2.0 7.0 0.00 0.00 0.00 34 1014.7
20260503200033 81 50 1.0 5.0 0.00 0.00 0.00 34 1015.0
20260503194646 80 62 1.0 7.0 0.00 0.00 0.00 34 1015.2
20260503193030 81 27 2.0 8.0 0.00 0.00 0.00 34 1015.4
20260503191530 81 41 2.0 6.0 0.00 0.00 0.00 35 1015.6
20260503190105 78 41 0.0 4.0 0.00 0.00 0.00 39 1015.6
20260503184530 76 25 1.0 5.0 0.00 0.00 0.00 39 1015.7
20260503183029 78 40 1.0 5.0 0.00 0.00 0.00 38 1015.8
20260503180036 78 15 0.0 5.0 0.00 0.00 0.00 41 1016.1
20260503173031 75 327 1.0 5.0 0.00 0.00 0.00 47 1016.2
20260503171646 73 19 1.0 3.0 0.00 0.00 0.00 47 1016.3
20260503090144 56 164 3.0 7.0 0.00 0.00 0.00 71 1015.7
20260503081533 55 177 5.0 10.0 0.00 0.00 0.00 77 1015.8
20260503071531 58 177 4.0 6.0 0.00 0.00 0.00 70 1015.8